EW9523 Weather Reports


Display with metric or nautical units.
time (UTC)temp
F
wind
direction
speed
MPH
gust
MPH
rain 1hr
in
rain 24hr
in
rain mn
in
humidity
%
barometer
mb
20260507204333 73 181 3.0 11.0 0.00 0.00 0.00 71 1016.5
20260507203333 73 153 3.0 9.0 0.00 0.00 0.00 70 1016.5
20260507202333 72 187 4.0 11.0 0.00 0.00 0.00 71 1016.7
20260507201333 72 163 3.0 7.0 0.00 0.00 0.00 71 1016.7
20260507200334 71 173 4.0 10.0 0.00 0.00 0.00 72 1016.7
20260507200307 70 171 3.0 7.0 0.00 0.00 0.00 74 1016.8
20260507194326 70 169 2.0 6.0 0.00 0.00 0.00 73 1017.0
20260507193323 69 219 3.0 10.0 0.00 0.00 0.00 73 1017.0
20260507192805 68 109 2.0 5.0 0.00 0.00 0.00 76 1017.1
20260507191321 67 159 3.0 7.0 0.00 0.00 0.00 76 1017.1
20260507190319 67 181 2.0 6.0 0.00 0.00 0.00 77 1017.2
20260507185319 66 178 3.0 6.0 0.00 0.00 0.00 79 1017.3
20260507184318 65 113 3.0 10.0 0.00 0.00 0.00 80 1017.4
20260507183317 64 259 2.0 7.0 0.00 0.00 0.00 81 1017.7
20260507182312 63 130 3.0 7.0 0.00 0.00 0.00 82 1017.6
20260507181309 62 77 2.0 7.0 0.00 0.00 0.00 86 1017.7
20260507181245 61 159 3.0 8.0 0.00 0.00 0.00 84 1017.9
20260507175309 60 203 2.0 6.0 0.00 0.00 0.00 86 1017.8
20260507174739 59 165 2.0 7.0 0.00 0.00 0.00 88 1017.7
20260507173307 58 217 1.0 4.0 0.00 0.00 0.00 89 1017.7
20260507172308 57 121 2.0 5.0 0.00 0.00 0.00 91 1017.8
20260507171304 56 254 1.0 4.0 0.00 0.00 0.00 91 1017.8
20260507170304 56 169 1.0 4.0 0.00 0.00 0.00 91 1017.9
20260507165306 55 240 2.0 5.0 0.00 0.00 0.00 92 1017.9
20260507164252 55 265 1.0 3.0 0.00 0.00 0.00 92 1017.9
20260507163244 55 255 1.0 2.0 0.00 0.00 0.00 93 1017.9
20260507162243 54 333 1.0 3.0 0.00 0.00 0.00 94 1018.0
20260507161238 54 308 1.0 4.0 0.00 0.00 0.00 94 1018.0
20260507160237 53 259 0.0 2.0 0.00 0.00 0.00 95 1018.0
20260507155238 53 305 1.0 3.0 0.00 0.00 0.00 95 1018.0
20260507154238 53 351 1.0 4.0 0.00 0.00 0.00 95 1018.0
20260507153239 53 248 1.0 3.0 0.00 0.00 0.00 95 1017.9
20260507152236 53 342 1.0 4.0 0.00 0.00 0.00 95 1017.9
20260507151647 53 5 0.0 2.0 0.00 0.00 0.00 96 1018.0
20260507150212 53 59 1.0 3.0 0.00 0.00 0.00 95 1017.9
20260507145211 53 19 0.0 0.0 0.00 0.00 0.00 96 1017.9
20260507144210 53 56 0.0 2.0 0.00 0.00 0.00 96 1017.9
20260507143154 53 67 0.0 2.0 0.00 0.00 0.00 95 1017.8
20260507142034 53 321 0.0 2.0 0.00 0.00 0.00 96 1017.7
20260507141024 53 5 1.0 3.0 0.00 0.00 0.00 96 1017.5
20260507140502 53 37 0.0 2.0 0.00 0.00 0.00 96 1017.5
20260507135023 53 278 1.0 2.0 0.00 0.00 0.00 96 1017.3
20260507134020 52 242 0.0 2.0 0.00 0.00 0.00 96 1017.2
20260507133020 52 275 1.0 3.0 0.00 0.00 0.00 95 1017.2
20260507132008 53 317 1.0 3.0 0.00 0.00 0.00 95 1017.1
20260507131006 52 250 1.0 3.0 0.00 0.00 0.00 95 1017.0
20260507125944 52 324 1.0 2.0 0.00 0.00 0.00 95 1017.0
20260507124939 52 306 0.0 2.0 0.00 0.00 0.00 95 1017.0
20260507123930 53 262 0.0 0.0 0.00 0.00 0.00 95 1017.0
20260507122908 52 262 1.0 2.0 0.00 0.00 0.00 95 1017.0
20260507121856 52 282 1.0 3.0 0.00 0.00 0.00 95 1017.0
20260507121333 53 251 0.0 3.0 0.00 0.00 0.00 95 1017.0
20260507115852 53 259 0.0 2.0 0.00 0.00 0.00 95 1017.0
20260507114838 53 250 0.0 2.0 0.00 0.00 0.00 95 1017.2
20260507114316 53 277 0.0 2.0 0.00 0.00 0.00 95 1017.1
20260507112832 53 150 0.0 0.0 0.00 0.00 0.00 95 1017.1
20260507111806 53 150 0.0 1.0 0.00 0.00 0.00 95 1017.1
20260507110804 53 189 0.0 2.0 0.00 0.00 0.00 95 1017.1
20260507110243 53 189 0.0 1.0 0.00 0.00 0.00 94 1017.2
20260507104758 53 189 1.0 2.0 0.00 0.00 0.00 94 1017.2
20260507104233 53 229 1.0 2.0 0.00 0.00 0.00 94 1017.3
20260507102754 53 217 0.0 3.0 0.00 0.00 0.00 94 1017.4
20260507102222 53 129 0.0 2.0 0.00 0.00 0.00 95 1017.3
20260507101229 53 175 0.0 1.0 0.00 0.00 0.00 94 1017.3
20260507095733 53 182 0.0 1.0 0.00 0.00 0.00 94 1017.2
20260507095215 53 213 1.0 4.0 0.00 0.00 0.00 94 1017.4
20260507093732 53 188 0.0 4.0 0.00 0.00 0.00 94 1017.4
20260507092715 53 195 0.0 4.0 0.00 0.00 0.00 94 1017.4
20260507091715 53 68 0.0 2.0 0.00 0.00 0.00 94 1017.4
20260507090709 53 176 1.0 4.0 0.00 0.00 0.00 94 1017.5
20260507085659 53 105 1.0 4.0 0.00 0.00 0.00 94 1017.5
20260507084659 53 121 0.0 2.0 0.00 0.00 0.00 94 1017.5
20260507083655 53 129 0.0 0.0 0.00 0.00 0.00 94 1017.5
20260507082653 53 129 0.0 0.0 0.00 0.00 0.00 93 1017.5
20260507081653 53 129 0.0 1.0 0.00 0.00 0.00 93 1017.4
20260507080627 53 115 0.0 1.0 0.00 0.00 0.00 92 1017.5
20260507075621 53 98 0.0 2.0 0.00 0.00 0.00 92 1017.4
20260507075552 53 134 0.0 2.0 0.00 0.00 0.00 92 1017.4
20260507073619 54 167 1.0 4.0 0.00 0.00 0.00 92 1017.3
20260507072613 54 89 1.0 3.0 0.00 0.00 0.00 91 1017.2
20260507071612 55 140 0.0 2.0 0.00 0.00 0.00 91 1017.2
20260507070601 55 130 0.0 4.0 0.00 0.00 0.00 91 1017.1
20260507065550 55 134 1.0 3.0 0.00 0.00 0.00 90 1017.0
20260507064540 56 163 0.0 2.0 0.00 0.00 0.00 90 1017.0
20260507063517 56 167 0.0 2.0 0.00 0.00 0.00 89 1016.9
20260507062515 56 164 0.0 3.0 0.00 0.00 0.00 89 1016.8
20260507061511 57 147 0.0 2.0 0.00 0.00 0.00 88 1016.9
20260507060448 57 150 0.0 3.0 0.00 0.00 0.00 88 1016.9
20260507055927 58 177 0.0 3.0 0.00 0.00 0.00 87 1016.8
20260507055347 58 153 0.0 2.0 0.00 0.00 0.00 86 1016.7
20260507053424 59 153 0.0 0.0 0.00 0.00 0.00 85 1016.7
20260507052417 60 153 0.0 2.0 0.00 0.00 0.00 84 1016.8
20260507051405 60 132 0.0 1.0 0.00 0.00 0.00 83 1016.8
20260507050324 61 108 1.0 3.0 0.00 0.00 0.00 82 1016.7
20260507045317 61 115 2.0 5.0 0.00 0.00 0.00 81 1016.6
20260507044301 62 132 1.0 4.0 0.00 0.00 0.00 80 1016.7
20260507043300 62 144 0.0 3.0 0.00 0.00 0.00 79 1016.6
20260507042301 63 110 0.0 3.0 0.00 0.00 0.00 78 1016.6
20260507041301 64 116 0.0 3.0 0.00 0.00 0.00 77 1016.6
20260507041210 64 111 1.0 3.0 0.00 0.00 0.00 76 1016.5
20260507035726 65 105 0.0 3.0 0.00 0.00 0.00 75 1016.4
20260507034244 66 127 1.0 5.0 0.00 0.00 0.00 74 1016.4
20260507033244 67 94 2.0 5.0 0.00 0.00 0.00 74 1016.3
20260507032724 67 142 2.0 5.0 0.00 0.00 0.00 72 1016.3
20260507031245 68 82 2.0 7.0 0.00 0.00 0.00 71 1016.2
20260507030640 71 103 1.0 4.0 0.00 0.00 0.00 69 1016.1
20260507030308 69 108 1.0 5.0 0.00 0.00 0.00 70 1016.2
20260507024233 71 153 1.0 4.0 0.00 0.00 0.00 68 1016.1
20260507023230 72 154 1.0 5.0 0.00 0.00 0.00 67 1016.1
20260507022229 72 150 1.0 5.0 0.00 0.00 0.00 66 1016.0
20260507021715 73 129 2.0 5.0 0.00 0.00 0.00 65 1016.0
20260507020225 74 113 2.0 6.0 0.00 0.00 0.00 64 1015.9
20260507015217 74 117 2.0 7.0 0.00 0.00 0.00 64 1016.0
20260507014217 75 159 2.0 6.0 0.00 0.00 0.00 62 1016.2
20260507013217 75 236 2.0 6.0 0.00 0.00 0.00 63 1016.2
20260507012657 76 145 2.0 6.0 0.00 0.00 0.00 63 1016.2
20260507011217 76 128 3.0 8.0 0.00 0.00 0.00 63 1016.2
20260507010655 76 141 3.0 11.0 0.00 0.00 0.00 62 1016.2
20260507005216 77 145 4.0 10.0 0.00 0.00 0.00 63 1016.0
20260507004217 77 80 3.0 12.0 0.00 0.00 0.00 63 1015.9
20260507003217 78 91 3.0 11.0 0.00 0.00 0.00 63 1015.8
20260507002212 78 126 3.0 9.0 0.00 0.00 0.00 61 1015.7
20260507001648 78 155 3.0 9.0 0.00 0.00 0.00 61 1015.7
20260507000213 78 84 4.0 12.0 0.00 0.00 0.00 60 1015.6
20260506235210 79 159 4.0 11.0 0.00 0.00 0.00 60 1015.7
20260506234209 79 80 3.0 10.0 0.00 0.00 0.00 60 1015.8
20260506233209 80 158 3.0 7.0 0.00 0.00 0.00 59 1015.8
20260506232208 80 205 3.0 7.0 0.00 0.00 0.00 55 1015.9
20260506231209 80 115 2.0 7.0 0.00 0.00 0.00 54 1016.0
20260506230210 80 136 3.0 10.0 0.00 0.00 0.00 55 1016.1
20260506225204 80 178 2.0 7.0 0.00 0.00 0.00 54 1016.3
20260506224204 79 31 2.0 7.0 0.00 0.00 0.00 55 1016.4
20260506223657 79 108 2.0 7.0 0.00 0.00 0.00 55 1016.5
20260506222202 79 120 2.0 5.0 0.00 0.00 0.00 56 1016.5
20260506221203 78 93 3.0 7.0 0.00 0.00 0.00 56 1016.7
20260506220204 78 155 2.0 6.0 0.00 0.00 0.00 58 1016.9
20260506215203 78 109 2.0 6.0 0.00 0.00 0.00 59 1017.0
20260506214203 78 153 2.0 5.0 0.00 0.00 0.00 60 1017.2
20260506213200 77 45 2.0 6.0 0.00 0.00 0.00 60 1017.4
20260506212152 76 175 3.0 6.0 0.00 0.00 0.00 63 1017.5
20260506211148 76 104 2.0 6.0 0.00 0.00 0.00 60 1017.4
20260506210146 76 246 2.0 7.0 0.00 0.00 0.00 59 1017.5